Weather in Shirokundysh

Russia / Mari El Republic     56°44′21″N   46°54′57″E
temp.,
°C
wind,
m/s
gust,
m/s
humid.,
%
clouds,
%
prec.,
mm/h
press.,
hPa
HPBL,
m
3 march, wed
wed300:00−2w41096100 0.2 999506
03:00−4wnw4996100 0.4 1000519
06:00−6wnw41292100 0.3 1001584
09:00−5nw6119299 0.8 1003764
12:00−5nw5889100 0.1 1004692
15:00−5wnw5888100 0.2 1005770
18:00−6wnw4990100 0.1 1005726
21:00−5wsw31090100 0.1 1004641
4 march, thu
thu400:00−5wsw41195100 0.4 1001626
03:00−4w51193100 0.6 999651
06:00−4sw41196100 0.3 997617
09:00−2wsw61294100 1.0 994887
12:000wsw71391100 1.3 9921328
15:00−1w6127965 1.8 9931317
18:00−5w4128876 0.1 995638
21:00−5wnw399581 0.1 998433
5 march, fri
fri500:00−10nw239697 0.0 99955
03:00−13nnw229673 0.0 100021
06:00−15nnw22930 0.0 100221
09:00−13n249143 0.0 1003209
12:00−9nnw248929 0.0 1004522
15:00−8nw368660 0.1 1006828
18:00−12wnw2393100 0.1 100845
21:00−15w229552 0.1 101020
6 march, sat
sat600:00−15wsw23971 0.0 101148
03:00−16sw23972 0.0 101162
06:00−16sw259730 0.0 1011126
09:00−12wsw369461 0.1 1011327
12:00−9nw2490100 0.1 1012639
15:00−10nw3585100 0.3 1011836
18:00−14wnw239294 0.1 101121
21:00−17wsw239647 0.1 101147
7 march, sun
sun700:00−15wsw379699 0.1 1011227
03:00−17sw369898 0.1 1010134
06:00−17ssw379891 0.1 1009193
09:00−13ssw4109195 0.1 1007363
12:00−10s61191100 0.0 1004634
15:00−8s61293100 0.4 10011037
18:00−7s71493100 1.1 9961144
21:00−5s71494100 2.7 9921109